Back to catalog

CZ-6A DEB

AlivePO
NORAD 61838·DEBRIS·🇨🇳 China

Launched Aug 6, 2024 from Taiyuan Satellite Launch Center

Loading…

Next Passes (next 24 hours)

TLE

FreshSource: Space-Track

Epoch: Sep 12, 2026, 00:03 UTC

1 61838U 24140ADE 26255.00246197  .00006799  00000-0  11171-2 0  9990
2 61838  88.9447 254.2479 0068202 302.2350  57.2268 14.68980966105614

Track CZ-6A DEB in real time with AllMySat

Download on the App Store